Location: Solon
(41.3849°N, 81.4081°W)
Time: 19:47:28
(UTC-05:00)

Daily predictions for brighter satellites

Satellite Brightness Start Highest point End
(mag) Time Altitude Azimuth Time Altitude Azimuth Time Altitude Azimuth
USA 234 3.3 17:18:06 10° NE 17:24:42 89° SE 17:31:14 10° SW
SPOT 3 Rocket 3.8 17:20:28 10° SE 17:25:24 46° ENE 17:30:21 10° N
Cosmos 372 Rocket 4.1 17:21:58 10° SSW 17:27:13 85° WNW 17:32:31 10° NNE
IRS-1A Rocket 4.3 17:22:12 10° SSE 17:27:42 90° ENE 17:33:15 10° NNW
Cosmos 1536 3.0 17:24:04 10° N 17:28:08 83° W 17:32:13 10° S
YAOGAN 1 3.0 17:24:22 10° SE 17:28:22 39° ENE 17:32:25 10° N
Cosmos 1844 Rocket 2.7 17:24:54 10° SSW 17:30:26 72° ESE 17:36:03 10° NNE
Cosmos 1812 3.7 17:27:58 10° SSE 17:31:14 27° E 17:34:33 10° NNE
Cosmos 1378 Rocket 4.4 17:30:56 10° SSW 17:35:08 52° W 17:39:21 10° N
COSMOS 2487 4.4 17:34:14 10° NNE 17:35:46 12° ENE 17:37:16 10° E
AQUARIUS 4.3 17:33:11 10° SSE 17:37:34 55° ENE 17:41:58 10° N
USA 32 4.1 17:32:46 10° SSE 17:37:51 57° E 17:42:58 10° NNE
Meteor 2-19 Rocket 4.5 17:32:05 10° N 17:38:04 59° E 17:44:01 10° SSE
ISS -2.6 17:35:50 10° WSW 17:39:02 47° NNW 17:42:12 10° NE
SL-8 Rocket 4.0 17:33:31 10° N 17:39:40 68° E 17:45:47 10° SSE
CZ-2C R/B 4.5 17:37:16 10° N 17:41:36 54° WNW 17:45:58 10° SSW
Cosmos 1346 Rocket 4.3 17:40:17 10° SE 17:42:56 18° E 17:45:21 11° NE
IDEFIX/ARIANE 42P 2.5 17:40:43 10° SSE 17:45:52 68° ENE 17:51:02 10° N
ATLAS 2AS CENTAUR R/B 3.0 17:38:04 10° NNW 17:46:12 72° NE 17:53:46 10° SE
CORIOLIS 4.2 17:41:00 10° SSE 17:46:20 62° ENE 17:51:40 10° N
Cosmos 494 Rocket 4.2 17:41:34 10° N 17:46:41 51° ENE 17:51:47 10° SE
Cosmos 1844 3.6 17:41:40 10° SSW 17:47:12 73° ESE 17:52:45 10° NNE
Cosmos 1455 Rocket 3.2 17:44:28 10° N 17:48:46 49° ENE 17:53:04 10° SSE
BREEZE-M DEB (TANK) 4.4 17:43:27 10° WNW 17:50:22 53° SW 17:53:59 10° SE
Cosmos 2366 rocket 4.1 17:44:36 10° N 17:50:54 61° E 17:57:07 10° SSE
CZ-3B DEB 2.0 17:50:49 10° SW 17:54:13 81° SE 18:02:20 12° NE
Cosmos 1959 Rocket 4.4 17:48:28 10° N 17:54:40 75° E 18:00:53 10° SSE
Cosmos 2218 Rocket 4.0 17:49:15 10° N 17:55:35 76° E 18:01:46 10° SSE
MSX 3.8 17:52:57 10° SSE 17:58:36 61° ENE 18:04:16 10° N
Thor Agena Rocket 3.6 17:56:54 10° NNE 18:02:08 85° WNW 18:07:23 10° SSW
Abrixas 4.0 18:00:14 10° NW 18:02:39 22° N 18:03:36 19° NE
CZ-4 R/B 2.2 17:58:41 10° S 18:02:47 58° WSW 18:06:55 10° NNW
Cosmos 2278 Rocket 2.3 17:58:11 10° S 18:03:42 60° ESE 18:09:17 10° NNE
SMAP 3.2 17:59:05 10° S 18:03:43 80° WSW 18:08:24 10° NNW
SL-24 DEB 4.4 18:00:04 10° NNE 18:04:42 50° E 18:09:15 10° SSE
OTV 4 3.3 18:05:11 10° WSW 18:06:58 15° SSW 18:08:45 10° SSE
Cosmos 1238 Rocket 2.0 18:04:19 10° S 18:07:15 86° W 18:10:17 10° N
BREEZE-M R/B 4.4 17:56:25 10° SW 18:08:18 78° SSE 18:12:20 19° ENE
OPS 8737 4.3 18:05:06 10° SW 18:08:25 78° WNW 18:10:36 19° NNE
CZ-2C R/B 2.8 18:05:03 10° S 18:09:58 70° WSW 18:15:06 10° NNW
Cosmos 1975 2.9 18:07:08 10° N 18:11:09 56° E 18:15:06 10° SSE
Meteor 1-12 Rocket 4.2 18:06:09 10° N 18:11:57 77° E 18:17:50 10° SSE
MONITOR-E 4.1 18:09:43 10° SSE 18:12:52 64° ENE 18:16:03 10° N
Cosmos 2251 Rocket 3.6 18:08:01 10° NNW 18:13:24 81° WSW 18:18:41 10° SSE
SL-27 R/B 4.0 18:16:29 10° NNW 18:19:57 40° WSW 18:23:23 10° S
COSMOS 2441 4.3 18:16:36 10° SSE 18:21:27 82° ENE 18:26:22 10° N
Genesis I 3.5 18:17:47 10° NNW 18:21:34 43° NE 18:23:19 26° ESE
Cosmos 1821 Rocket 4.4 18:20:06 10° N 18:25:38 35° ENE 18:31:08 10° SE
NOAA 12 4.5 18:21:04 10° SE 18:25:55 38° ENE 18:30:46 10° N
SL-8 R/B 3.6 18:23:46 10° WSW 18:28:33 87° NNW 18:30:50 31° ENE
Cosmos 2082 Rocket 2.5 18:23:40 10° N 18:29:00 41° ENE 18:33:41 13° SE
Cosmos 1484 Rocket 2.5 18:25:19 10° SSE 18:29:04 81° ENE 18:32:49 10° N
Cosmos 1833 Rocket 3.2 18:25:24 10° N 18:30:37 36° ENE 18:33:05 25° ESE
Meteor 1-13 Rocket 4.3 18:26:03 10° S 18:31:31 53° E 18:37:08 10° NNE
Meteor 2-21 4.4 18:26:20 10° N 18:32:32 71° E 18:38:38 10° SSE
NOSS 2-1 (D) 4.4 18:30:33 10° S 18:33:31 27° SE 18:33:31 27° SE
NOSS 2-1 (C) 4.4 18:31:16 10° S 18:34:09 27° SE 18:34:09 27° SE
COSMO-SKYMED 1 2.5 18:34:05 12° NNE 18:38:05 87° E 18:42:26 10° SSW
Cosmos 1500 3.3 18:37:28 10° N 18:41:18 78° W 18:45:08 10° S
Meteor 1-28 Rocket 3.1 18:45:29 60° E 18:45:43 61° E 18:49:28 10° S
Nadezhda 3 Rocket 3.9 18:42:21 10° S 18:48:32 83° E 18:54:50 10° N
SL-24 R/B - RUBIN 2 4.4 18:44:56 10° SSW 18:51:12 78° ESE 18:54:43 30° NE
NOSS 2-1 (E) 4.2 18:49:25 10° S 18:52:08 34° SSE 18:52:08 34° SSE
Timation 1 Rocket 4.3 18:47:34 10° S 18:53:24 60° ESE 18:55:27 39° NE
Meteor 2-14 Rocket 4.3 18:48:22 10° N 18:54:33 78° E 19:00:41 10° SSE
GEOS 3 Rocket 3.5 18:53:31 17° SE 18:57:31 88° NE 19:02:39 10° NW
Tiangong 1 2.6 18:55:18 10° SW 18:57:12 31° SSW 18:57:12 31° SSW
Meteor 2-4 Rocket 3.7 18:53:16 10° SSE 18:58:26 50° E 18:58:30 50° E
USA 234 4.3 19:03:53 22° NNE 19:07:15 35° NNW 19:13:02 10° W
Cosmos 1025 Rocket 3.9 19:04:45 10° S 19:07:27 37° SSE 19:07:27 37° SSE
COSMOS 2487 3.6 19:08:06 10° NNW 19:11:32 43° WSW 19:13:00 28° SSW
ATLAS 3B CENTAUR R/B 4.2 18:55:30 10° WSW 19:11:41 38° SSW 19:15:57 23° SE
Cosmos 921 Rocket 3.1 19:10:31 10° SSW 19:14:35 73° W 19:14:35 73° W
ISS -0.5 19:13:59 10° NW 19:14:53 14° NW 19:14:53 14° NW
Meteor 2-16 Rocket 4.5 19:11:09 10° N 19:17:15 77° W 19:23:18 10° S
BREEZE M DEB (TANK) 3.7 19:16:19 10° NW 19:20:24 63° NNE 19:21:54 52° ENE
Cosmos 1371 Rocket 4.1 19:15:26 10° S 19:20:09 65° SSE 19:20:09 65° SSE
NOSS 3-4 (A) 3.8 19:15:01 10° NNW 19:21:52 54° NE 19:21:59 54° NE
NOSS 3-4 (C) 3.9 19:15:08 10° NNW 19:21:58 54° NE 19:22:03 54° NE
Cosmos 2297 4.3 19:27:58 10° SW 19:33:28 53° WNW 19:35:04 40° NNW
Cosmos 1934 Rocket 4.2 19:39:41 10° NNW 19:45:50 69° W 19:52:03 10° S
Cosmos 2278 Rocket 4.3 19:43:54 10° WSW 19:48:13 22° NW 19:51:13 15° NNW
Cosmos 2082 Rocket 3.9 20:08:06 10° NW 20:12:53 29° WSW 20:15:50 18° SSW
Cosmos 1833 Rocket 4.2 20:09:28 10° NW 20:14:26 32° WSW 20:14:56 32° WSW
CZ-3B DEB 4.3 20:24:48 10° WNW 20:30:57 40° N 20:30:57 40° N
